Tracking 31027 objects as of 19-Jul-2025
HD Live streaming from Space Station
objects crossing your sky now

STARLINK-5759

Track STARLINK-5759 now!
10-day predictions
STARLINK-5759 is classified as:


NORAD ID: 55592
Int'l Code: 2023-020Z
Perigee: 565.3 km
Apogee: 567.1 km
Inclination: 43.0 °
Period: 95.8 minutes
Semi major axis: 6937 km
RCS: Unknown
Launch date: February 12, 2023
Source: United States (US)
Launch site: AIR FORCE EASTERN TEST RANGE (AFETR)
Your satellite tracking list
FLOCK 3P 17
Track 1 satellite(s)




NASA's NSSDC Master Catalog

Two Line Element Set (TLE):
1 55592U 23020Z   25199.35788857 -.00000135  00000-0  51020-5 0  9993
2 55592  43.0019 197.5998 0001311 278.5768  81.4926 15.02535603133672
Source of the keplerian elements: AFSPC